Location: Arbon
(43.0005°N, 0.7472°E)
Time: 00:27:50
(UTC+00:00)

Daily predictions for brighter satellites

Satellite Brightness Start Highest point End
(mag) Time Altitude Azimuth Time Altitude Azimuth Time Altitude Azimuth
Cosmos 1464 Rocket 4.2 00:08:47 58° E 00:08:47 58° E 00:14:37 10° NNE
Cosmos 2233 Rocket 4.4 00:10:46 53° W 00:10:51 53° WNW 00:17:03 10° N
Lacrosse 4 Rocket 3.3 00:13:02 29° NNE 00:13:02 29° NNE 00:15:07 10° NNE
Cosmos 2333 4.4 00:05:03 10° NNW 00:10:14 69° N 00:10:14 69° N
Cosmos 2219 Rocket 2.6 00:05:46 10° NNW 00:11:13 56° NE 00:11:13 56° NE
Cosmos 968 Rocket 4.1 00:19:13 53° N 00:19:13 53° N 00:23:09 10° NNE
Cosmos 2322 Rocket 3.9 00:14:42 10° NW 00:17:43 22° WNW 00:17:43 22° WNW
COSMOS 2428 2.9 00:23:47 10° NNW 00:29:11 68° NE 00:29:11 68° NE
SL-16 R/B 4.1 00:28:37 21° E 00:31:20 29° ENE 00:36:36 10° N
CENTAUR R/B 4.4 00:27:24 11° W 00:32:22 27° NNW 00:38:25 10° NNE
Nadezhda 4 Rocket 4.2 00:28:46 10° N 00:35:01 62° E 00:35:18 61° E
Cosmos 2360 Rocket 3.5 00:30:01 10° NW 00:33:24 29° WNW 00:33:24 29° WNW
Cosmos 2034 Rocket 4.0 00:35:41 68° E 00:35:41 68° E 00:41:52 10° NNE
Cosmos 1513 Rocket 4.4 00:37:32 82° WNW 00:37:32 82° WNW 00:43:57 10° N
CZ-2D R/B 3.8 00:33:46 10° NE 00:38:05 24° E 00:38:05 24° E
Cosmos 1072 Rocket 4.4 00:39:08 75° WNW 00:39:08 75° WNW 00:45:02 10° N
Okean 2 Rocket 4.5 00:41:46 35° NE 00:41:46 35° NE 00:44:42 10° NNE
Meteor 2-9 Rocket 4.4 00:41:29 68° NNW 00:41:29 68° NNW 00:46:29 10° N
GEOS 3 Rocket 4.0 00:38:18 10° NE 00:42:46 58° ENE 00:42:46 58° ENE
Cosmos 2297 Rocket 3.5 00:45:36 30° E 00:45:36 30° E 00:49:54 10° NE
Cosmos 2219 4.3 00:45:50 34° E 00:45:50 34° E 00:50:14 10° NE
Cosmos 1975 Rocket 4.4 00:42:52 10° NNW 00:45:36 36° NNW 00:45:36 36° NNW
Cosmos 2333 Rocket 2.6 00:43:32 10° NNW 00:48:11 56° WNW 00:48:11 56° WNW
Helios 1B rocket 4.0 00:46:27 10° N 00:48:49 34° N 00:48:49 34° N
Cosmos 44 Rocket 3.9 00:50:50 10° NNW 00:55:08 57° NNE 00:55:08 57° NNE
Cosmos 1503 Rocket 4.5 00:56:39 55° NW 00:56:39 55° NW 01:01:27 10° NNE
Cosmos 2237 Rocket 3.0 00:53:07 10° NNW 00:58:34 47° ENE 00:59:51 40° E
Cosmos 2151 Rocket 4.4 01:12:29 48° NNE 01:12:29 48° NNE 01:15:44 10° NNE
Meteor 1-12 Rocket 4.2 01:11:28 89° SSW 01:11:31 90° WNW 01:17:33 10° N
Timation 2 Rocket 3.8 01:14:34 84° SW 01:14:49 89° WNW 01:20:55 10° NNE
In-Cosmos 22 4.1 01:13:36 10° N 01:19:14 81° E 01:19:14 81° E
Meteor 1-15 Rocket 4.5 01:22:53 56° ESE 01:23:19 57° E 01:28:49 10° NNE
SJ 16-02 3.2 01:25:10 22° E 01:25:10 22° E 01:28:23 10° NE
Meteor 2-13 Rocket 4.3 01:27:23 10° N 01:33:31 86° W 01:34:11 73° S
Cosmos 2227 Rocket 2.2 01:33:34 64° SE 01:33:51 65° ESE 01:39:28 10° NNE
Cosmos 1538 Rocket 3.9 01:30:33 10° NNW 01:35:44 79° ENE 01:35:51 79° E
Cosmos 2195 Rocket 4.4 01:29:50 10° N 01:36:10 83° W 01:37:03 68° S
MOZ.5/SAFIR/RUBIN 5/SL-8 4.1 01:37:00 59° NW 01:37:00 59° NW 01:40:59 10° NNW
Cosmos 1025 Rocket 4.3 01:33:33 10° NNW 01:36:08 33° NW 01:36:08 33° NW
Resurs 1-4 Rocket 2.0 01:33:53 10° NNE 01:39:12 80° ESE 01:39:24 78° SE
Cosmos 1674 4.0 01:37:20 10° N 01:39:47 38° NNE 01:39:47 38° NNE
SL-19 R/B 4.5 01:36:58 10° N 01:42:49 57° WNW 01:43:22 55° W
NOSS 0 Rocket 4.1 01:38:48 10° NW 01:44:40 55° WSW 01:44:40 55° WSW
ATLAS 3B R/B 4.4 01:40:56 12° W 01:45:33 23° NNW 01:50:43 10° NNE
Cosmos 2279 Rocket 4.1 01:44:46 49° SSE 01:46:17 66° E 01:52:25 10° NNE
USA 215 3.3 01:43:35 10° NE 01:50:06 66° SE 01:51:29 53° S
Lacrosse 4 Rocket 4.0 01:49:19 11° NW 01:50:12 12° NW 01:51:48 10° NNW
Cosmos 2026 Rocket 3.8 01:44:09 10° N 01:50:14 76° W 01:51:08 64° SSW
Cosmos 1634 Rocket 3.9 01:50:26 61° SW 01:51:25 72° W 01:57:40 10° N
Cosmos 1627 Rocket 4.4 01:46:42 10° NNW 01:52:49 69° W 01:53:40 61° SW
Cosmos 2082 4.0 01:53:29 48° SE 01:54:26 54° ESE 01:59:54 10° NNE
Cosmos 2219 Rocket 3.9 01:50:37 10° NW 01:52:54 18° WNW 01:52:54 18° WNW
Cosmos 2344 4.4 01:46:21 10° NW 01:56:13 85° WSW 02:10:06 10° SSE
IRAS Rocket 4.2 01:57:00 62° WSW 01:57:11 63° WSW 02:02:44 10° NNW
SL-4 R/B 3.4 01:58:02 21° NNW 01:59:31 30° NNE 02:02:34 10° E
Cosmos 2142 Rocket 4.4 02:00:56 55° SSW 02:02:26 81° W 02:08:52 10° N
Meteor 1-24 Rocket 4.0 02:01:06 10° N 02:06:32 61° ENE 02:08:55 32° SE
SL-16 R/B 2.6 02:01:37 10° NNW 02:07:16 60° ENE 02:12:33 12° SE
CBERS-1 4.2 02:02:55 10° NNE 02:08:01 65° ESE 02:09:09 50° SSE
Meteor 2-5 Rocket 3.6 02:04:37 10° N 02:10:18 88° E 02:11:59 47° SSE
Cosmos 1898 Rocket 4.2 02:11:42 35° SSE 02:13:17 45° ESE 02:18:15 10° NNE
SL-16 R/B 2.7 02:13:42 47° SW 02:14:38 51° W 02:20:43 10° NNW
ARIANE 5 R/B 3.8 02:10:38 10° NNE 02:15:26 36° E 02:18:02 22° SSE
NPP 3.8 02:12:06 10° N 02:17:24 58° WNW 02:18:22 50° WSW
IDEFIX/ARIANE 42P 4.4 02:13:57 10° NE 02:18:13 25° E 02:21:55 12° SE
CZ-2D R/B 2.5 02:13:08 10° N 02:18:24 49° WNW 02:19:24 44° WSW
NOSS 3-1 (C) 3.9 02:17:24 35° SSE 02:19:01 45° ESE 02:24:46 10° NE
Cosmos 1680 Rocket 3.8 02:13:50 10° NNW 02:19:03 64° ENE 02:22:58 18° SE
USA 267 4.1 02:15:20 10° ESE 02:21:35 50° NNE 02:27:51 10° NW
AQUA 3.9 02:19:12 10° N 02:23:52 57° WNW 02:24:26 53° WSW
Cosmos 990 Rocket 4.2 02:23:20 42° SSE 02:24:54 63° ESE 02:30:02 10° NNE
Cosmos 1607 4.1 02:19:22 10° NNW 02:25:52 80° ENE 02:32:20 10° SE
Cosmos 1766 3.8 02:26:32 45° NW 02:26:32 45° NW 02:29:53 10° N
ADEOS II 2.0 02:21:26 10° NNE 02:26:43 84° ESE 02:28:23 45° S
Cosmos 2263 Rocket 3.9 02:23:53 13° SSE 02:27:26 24° ESE 02:31:49 10° NE
Meteor 1-22 Rocket 3.9 02:27:12 50° SSW 02:28:38 83° W 02:33:57 10° N
Cosmos 2297 Rocket 2.9 02:27:24 34° W 02:28:54 41° WNW 02:34:15 10° NNE
Cosmos 2219 4.1 02:27:45 30° W 02:29:17 35° WNW 02:34:26 10° N
IRS-1D 3.4 02:25:29 10° N 02:30:32 76° WNW 02:31:54 49° SSW
Okean 1-7 Rocket 3.8 02:28:44 10° N 02:33:09 68° E 02:35:04 33° SSE
IRS-1C 4.2 02:30:59 10° NNE 02:36:20 74° ESE 02:38:42 34° S
TIMED 4.5 02:33:06 10° NNW 02:37:30 84° ENE 02:39:36 30° SSE
Meteor 1-28 Rocket 3.8 02:36:22 28° SE 02:38:07 55° ENE 02:41:51 10° N
Okean 1 Rocket 4.2 02:38:14 28° WNW 02:38:14 28° WNW 02:41:57 10° NNW
Cosmos 1626 2.2 02:35:32 10° NNW 02:38:56 58° WNW 02:38:56 58° WNW
Cosmos 2266 Rocket 4.0 02:33:48 10° N 02:40:13 85° E 02:45:02 18° S
Cosmos 1655 Rocket 3.9 02:34:48 10° NNW 02:41:04 73° W 02:44:27 28° S
Cosmos 2237 Rocket 3.3 02:37:44 10° NW 02:41:36 25° W 02:41:36 25° W
Cosmos 1470 2.8 02:41:43 51° SSE 02:42:38 76° E 02:46:36 10° NNE
CZ-4B R/B 3.7 02:39:10 10° N 02:43:45 48° WNW 02:44:50 40° WSW
SL-08 R/B 3.4 02:43:56 20° SSE 02:47:24 84° ENE 02:52:24 10° NNW
Cosmos 923 Rocket 4.1 02:43:54 10° NNW 02:49:05 54° WSW 02:51:06 34° SSW
USA 229 DEB 3.7 02:48:34 29° SSW 02:52:01 70° ESE 02:58:46 10° NE
USA 229 3.7 02:48:39 29° SSW 02:52:05 69° ESE 02:58:50 10° NE
Cosmos 2098 Rocket 3.5 02:50:18 10° NNW 02:55:10 75° W 02:59:34 19° S
Cosmos 158 Rocket 4.0 02:51:37 10° NNW 02:56:55 61° WSW 03:00:32 20° S
OPS 8737 4.4 02:56:59 54° WSW 02:57:40 75° NW 03:00:48 10° NNE
NOSS 2-3 (C) 4.2 03:01:07 27° S 03:03:06 49° ESE 03:07:42 10° NE
NOSS 3-1 (A) 3.6 03:00:07 25° S 03:03:13 57° ESE 03:09:15 10° NE
SJ 16-02 2.3 03:02:10 29° W 03:03:19 34° WNW 03:07:22 10° N
ERBS 2.1 03:00:19 10° NW 03:03:32 59° SW 03:06:48 10° SSE
SL-14 R/B 3.9 03:00:07 10° NNW 03:03:41 34° W 03:03:47 34° W
SL-23 DEB 4.3 03:03:14 10° WNW 03:09:29 56° SW 03:13:14 10° SE
Cosmos 858 Rocket 4.5 03:07:27 28° SSW 03:10:20 78° WNW 03:15:39 10° NNE
Cosmos 1455 Rocket 3.6 03:11:32 31° WSW 03:12:59 41° WNW 03:17:11 10° N
Cosmos 1943 4.2 03:08:34 10° NNW 03:14:01 48° ENE 03:19:26 10° SE
Cosmos 1809 Rocket 4.4 03:08:10 10° N 03:14:17 84° W 03:20:23 10° S
MSX 4.4 03:08:46 10° NNE 03:14:28 58° E 03:20:07 10° S
Cosmos 1758 3.5 03:13:25 33° SW 03:14:56 54° W 03:18:54 10° N
Cosmos 1626 Rocket 3.5 03:11:08 10° N 03:15:29 88° E 03:19:47 10° S
Resurs 1-4 Rocket 4.0 03:15:25 10° NNW 03:18:19 15° WNW 03:20:28 12° W
Cosmos 2227 Rocket 3.8 03:15:24 15° W 03:18:24 22° NW 03:22:45 10° N
Spot 4 Rocket 4.0 03:13:52 10° NNE 03:19:04 86° WNW 03:23:00 18° SSW
Meteor 1-21 Rocket 4.3 03:13:42 10° N 03:19:17 77° E 03:24:48 10° SSE
SeaSat 1 3.1 03:18:30 10° NE 03:23:19 52° ESE 03:27:42 12° S
Landsat 5 3.9 03:19:54 10° SSE 03:23:42 60° ENE 03:27:39 10° N
Cosmos 1461 3.8 03:23:26 23° WSW 03:25:39 40° NW 03:29:57 10° NNE
CZ-2C R/B 2.8 03:23:14 10° NNE 03:27:08 77° ESE 03:30:09 16° S
CZ-2D R/B 3.4 03:24:43 10° N 03:28:44 60° WNW 03:31:10 22° SSW
Cosmos 2227 4.3 03:24:44 18° SSW 03:29:12 87° ESE 03:35:00 10° NNE
FALCON 9 DEB 3.6 03:26:58 10° NW 03:30:26 62° NNE 03:33:52 10° ESE
ATLAS CENTAUR R/B 3.8 03:28:16 10° SSE 03:31:05 17° ESE 03:33:49 10° ENE
Cosmos 1340 Rocket 3.6 03:29:56 24° WSW 03:31:34 33° WNW 03:35:12 10° N
ATLAS 3B CENTAUR R/B 4.0 03:27:04 18° WSW 03:32:19 26° SSW 03:37:16 10° SE
USA 215 4.0 03:26:46 10° NE 03:32:57 46° NNW 03:38:49 11° W
Cosmos 1758 Rocket 4.5 03:29:13 10° N 03:33:24 49° ENE 03:37:36 10° SSE
ERS-2 2.4 03:31:21 10° SSE 03:34:58 71° ENE 03:38:37 10° N
Cosmos 2228 4.4 03:31:52 10° SSE 03:35:54 39° E 03:40:00 10° NNE
Cosmos 724 4.3 03:30:46 10° NNW 03:36:49 88° WSW 03:42:57 10° SSE
Meteor 2-21 4.4 03:31:19 10° NNW 03:37:19 64° W 03:43:18 10° S
Cosmos 1953 2.4 03:35:03 18° SSW 03:37:52 59° W 03:41:52 10° N
SL-4 R/B 1.6 03:35:52 10° WNW 03:39:12 52° SW 03:42:32 10° SE
Cosmos 1726 2.5 03:38:38 20° SW 03:40:49 44° WNW 03:44:22 10° N
Cosmos 1908 3.5 03:39:08 10° S 03:43:01 70° E 03:46:55 10° NNE
Meteor 1-16 Rocket 4.1 03:38:43 10° S 03:44:03 89° W 03:49:35 10° N
Cosmos 2285 Rocket 4.3 03:39:29 10° S 03:45:45 70° ESE 03:52:01 10° NNE
H-2A R/B 1.9 03:45:17 10° S 03:49:22 61° WSW 03:53:26 10° NNW
Cosmos 2150 Rocket 4.1 03:45:28 10° SSW 03:50:35 75° ESE 03:55:49 10° NNE
SL-16 R/B 3.5 03:46:49 10° NW 03:50:51 20° W 03:54:15 12° SW
Cosmos 1937 Rocket 4.3 03:47:07 16° WSW 03:50:54 36° WNW 03:55:48 10° N
ARIANE 5 R/B 3.6 03:49:54 10° N 03:54:25 30° WNW 03:58:22 13° WSW
Cosmos 1825 Rocket 3.9 03:51:42 10° N 03:56:02 70° E 04:00:20 10° SSE
IDEFIX/ARIANE 42P 3.1 03:53:03 10° N 03:57:56 42° WNW 04:02:43 10° SW
CZ-4C R/B 3.3 03:55:45 10° S 03:58:46 39° W 04:01:51 10° NNW
Cosmos 1328 3.8 03:56:26 10° N 04:00:27 90° ESE 04:04:25 10° S
NOSS 2-3 (E) 4.1 03:57:58 13° WSW 04:01:34 50° NW 04:06:26 10° NNE
CZ-4B R/B 2.6 03:58:39 10° SSE 04:01:50 46° ENE 04:04:58 10° N
Cosmos 1953 Rocket 4.5 03:57:39 10° N 04:02:05 54° E 04:06:27 10° SSE
USA 267 3.3 03:58:07 10° SSE 04:04:32 57° SW 04:10:58 10° NW
ADEOS II 4.0 04:02:59 10° NNW 04:05:42 14° WNW 04:08:24 10° W
NOSS 3-1 (C) 4.3 04:04:51 10° WSW 04:09:57 35° NW 04:15:50 10° NNE
Cosmos 2263 Rocket 2.6 04:05:37 10° SW 04:11:00 49° WNW 04:16:25 10° NNE
Cosmos 1703 3.4 04:07:19 10° NNW 04:11:13 55° W 04:15:05 10° S
Cosmos 1553 Rocket 4.0 04:07:24 10° SSW 04:13:24 65° W 04:19:28 10° N
Cosmos 372 Rocket 4.4 04:08:27 10° SW 04:13:26 47° WNW 04:18:30 10° N
SAR-Lupe-4 3.7 04:13:27 10° SSE 04:17:01 82° ENE 04:20:37 10° NNW
OAO 3 Rocket 4.4 04:15:56 10° SW 04:20:13 29° S 04:24:28 10° ESE
Cosmos 482 Debris 4.3 04:16:08 10° WNW 04:21:30 73° SW 04:24:41 10° SE
Cosmos 1606 Rocket 3.6 04:17:35 10° SSW 04:22:02 66° W 04:26:30 10° N
Aureole 3 4.2 04:17:37 10° SSW 04:22:32 74° W 04:28:54 10° N
Cosmos 1300 3.1 04:20:33 10° S 04:24:19 68° E 04:28:08 10° NNE
SL-08 ROCKET BODY 4.4 04:18:31 10° NNW 04:24:35 71° W 04:30:31 10° S
Cosmos 1745 Rocket 4.0 04:18:22 10° N 04:24:40 76° W 04:30:52 10° S
CZ-2C R/B 2.3 04:20:21 10° N 04:24:53 67° WNW 04:29:27 10° SSW
Cosmos 1125 Rocket 3.5 04:21:18 10° SSW 04:26:31 82° WNW 04:31:48 10° NNE
